FENGYUN 1C DEB

Satellite information

Favourite Embed

Satellite Type and Status

DEBRISIN ORBIT

Key statistics

Satellite FENGYUN 1C DEB at a glance.

Uptime

9610

Days in orbit

Revolutions

≈ 14.1

Per day

Orbit

SSO

Sun Synchronous Orbit

Inclination

98.3

Latest

Satellite identification and parameters

Extended collection of information and parameters for FENGYUN 1C DEB.

Object identification

Identified? True

Debris? True

Object name: FENGYUN 1C DEB

International designator: 1999-025CUU

Object number (NORAD): 32198

Object ID (CCSDS): 32198

Country: PEOPLES REPUBLIC OF CHINA (PRC)

Current information (Y/N): Y

RCS size: SMALL

Orbital parameters

Period: 102.276 minutes

Inclination: 98.3423 deg

SMA: 7244.511 km

Apoapsis: 936.66 km

Periapsis: 796.091 km

RAAN: 37.341 deg

Eccentricy: 0.00970179

Argument of periapsis: 229.0858 deg

Mean anomaly: 130.1882 deg

Mean motion: 14.07956292 rev/day

Mean motion (dot): 0.00005391 rev/day2

B* drag term: 0.0030604286 1/REarth

Two-line elements (TLE)

Creation date: Aug. 31, 2025, 2:26 a.m.

Reference frame: TEME

Reference center: EARTH

Epoch: Aug. 30, 2025, 5:01 p.m. UTC

TLE line 0: 0 FENGYUN 1C DEB

TLE line 1: 1 32198U 99025CUU 25242.70954999 .00005391 00000-0 30604-2 0 9998

TLE line 2: 2 32198 98.3423 37.3410 0097018 229.0858 130.1882 14.07956292554812

Live tracking on map

Real-time ground track for satellite FENGYUN 1C DEB.

In-orbit conjunctions

A list of the most updated potential collisions computed for object FENGYUN 1C DEB.

Target Orbit TCA Probability of collision Miss distance Type
METEOR 1-17 DEB LEO 2025-08-29 06:35:38 0.000645166 59.0 (m) DEBRIS
SL-16 DEB LEO 2024-08-31 05:13:53 0.000372477 103.0 (m) DEBRIS

Associated space launch

Chinese polar orbiting meteorological satellite

FENGYUN 1C DEB was lifted into orbit during the mission ‘Long March 4B | Feng Yun 1C’, on board a Long March 4B space rocket.

The launch took place on May 10, 1999, 1:33 a.m. from Launch Complex 7.

For more information about the launch, click the button.

Launch to space Long March 4B | Feng Yun 1C
Long March 4B | Feng Yun 1C

Agency: N/A

Status: Launch Successful

Launch date: May 10, 1999, 1:33 a.m. UTC

Rocket: Long March 4B

Launch pad: Launch Complex 7

Location: Taiyuan Satellite Launch Center, People's Republic of China

...

Latest news about this satellite

There are no fresh news available about this satellite. Check back as we update our databases every day.


Newsletter sign-up

Weekly statistics, charts and insights to help you stay on top of the space industry.